ANIK G1

Last updated on Thu Oct 30 2025 00:02:49 GMT+0000 (Coordinated Universal Time)

1 39127U 13014A 25302.49275610 -.00000065 00000+0 00000+0 0 9997 2 39127 0.0179 252.1868 0003392 345.1037 230.8990 1.00272611 45946
UTC large
Height (km)
Speed (km/s)
/
Latitude / Longitude
Inclination (degrees)
Orbital Period (minutes)
Azimuth
Elevation
Range (km)
Doppler Factor

Next 0 passes for location: London (51.5072 / 0.1276)

Sorry there are no passes over London.